Wetbulb
26.53 27.64 27.80 27.74 27.55 26.91 25.13 25.21 21.36 21.72 22.47 25.43 25.85 26.34 28.73 28.62 30.09 31.84 32.79 34.59 34.74 35.19 39.02 40.68 40.52 39.79 39.72 40.15 40.84 41.69 41.63 42.78 44.85 49.02 48.67 47.46 46.99 46.31 45.13 45.08 43.81 43.42 41.82 41.19
21.15 25.23 24.81 23.03 24.85 23.56 24.21 24.81 23.90 23.99 23.31 25.66 26.73 28.38 28.87 28.44 31.18 31.88 32.93 34.83 35.97 35.67 36.27 39.64 39.95 39.34 38.60 38.96 39.47 40.45 41.02 42.07 44.08 45.02 44.29 43.17 42.43 41.61 40.90 40.37 40.05 39.89 39.36 39.16
16.06 21.66 21.20 17.56 20.76 22.96 25.03 26.25 25.33 22.79 23.86 26.49 27.38 28.46 28.89 29.00 31.51 31.19 32.73 34.94 35.99 35.96 35.47 38.05 40.22 39.12 37.74 38.00 38.81 39.51 40.29 42.93 42.56 42.00 40.88 40.21 40.06 39.66 38.98 38.66 38.86 38.35 38.37 38.65
17.18 18.66 10.43 20.72 27.18 27.67 27.19 28.67 28.57 27.60 28.18 29.64 29.33 30.26 30.96 31.82 30.81 30.34 31.31 33.21 35.22 36.07 35.46 37.22 40.68 39.51 38.08 38.40 38.50 38.62 39.42 41.64 41.29 40.29 39.32 39.34 39.13 38.65 38.67 38.76 38.15 38.08 38.26 38.88
15.02 14.11 18.11 22.58 23.81 24.39 24.06 25.05 27.90 25.90 27.19 28.59 30.31 28.66 27.50 32.94 31.62 30.89 31.48 32.96 34.28 35.71 35.83 37.31 39.54 38.53 37.95 37.72 37.72 37.57 38.12 39.67 40.80 40.20 39.16 38.72 38.17 38.26 38.67 38.42 38.35 38.45 38.74 38.90
17.99 14.04 11.89 19.35 23.89 27.59 28.05 20.96 26.41 28.09 26.14 25.81 26.51 20.23 24.51 30.42 30.57 31.11 32.20 33.17 33.40 34.75 35.58 35.83 38.02 37.47 36.88 37.15 36.44 36.04 37.27 38.77 40.63 40.13 39.26 38.32 38.42 38.47 38.82 38.86 38.53 39.03 38.63 38.68
17.19 16.79 18.88 21.19 23.63 25.06 19.24 18.04 24.79 25.76 25.16 24.58 22.57 25.22 28.20 29.55 29.85 30.86 31.03 31.22 33.44 34.07 33.69 34.94 37.19 37.34 36.36 37.10 35.59 36.48 37.96 38.82 40.21 39.76 38.73 38.63 38.52 38.76 38.68 38.24 37.67 36.71 36.22 37.34
17.56 15.23 12.82 23.23 21.89 17.05 20.87 24.35 24.83 24.94 24.96 24.61 26.00 26.39 26.83 27.47 27.58 28.25 28.37 30.40 32.64 32.00 32.59 34.50 36.05 37.17 36.34 36.47 36.62 36.71 37.62 37.80 38.35 38.65 38.67 38.44 37.86 37.82 37.70 36.59 34.71 33.54 33.16 33.32
18.91 19.30 22.20 23.18 23.24 24.39 25.22 23.83 23.84 23.36 24.63 24.64 23.07 23.25 24.29 24.38 25.25 26.35 27.85 29.57 30.75 30.41 31.68 33.57 34.71 36.39 36.24 37.19 36.53 35.84 36.15 36.09 36.98 37.59 37.71 37.74 36.85 36.03 35.09 35.10 33.81 32.94 32.49 31.98
18.80 17.36 19.56 22.45 23.51 24.33 24.76 23.44 23.94 24.89 23.62 23.02 21.27 22.34 22.50 23.50 24.40 25.36 26.79 26.81 28.54 29.57 30.62 31.12 33.73 34.62 37.33 37.13 36.71 35.10 34.08 34.24 35.94 35.86 36.07 36.59 36.66 36.15 35.06 34.32 33.57 32.84 32.37 31.64
17.21 18.39 21.47 21.98 22.80 23.34 23.34 23.48 22.43 22.75 22.05 21.47 21.78 21.56 22.40 22.63 23.26 24.07 24.97 26.35 27.54 27.57 28.51 30.49 32.80 33.83 36.75 37.29 36.64 34.51 33.97 33.83 33.86 34.94 34.29 32.97 33.71 34.75 34.80 35.89 35.54 33.68 33.26 32.96
14.82 19.94 19.99 20.56 22.78 23.20 21.14 20.51 20.79 20.29 20.11 21.82 21.93 20.87 21.94 21.78 23.14 23.76 24.05 25.50 26.37 27.60 28.30 29.90 31.68 32.64 34.78 37.19 36.83 34.79 33.68 33.44 33.44 32.98 32.94 32.30 32.13 32.53 37.05 37.78 38.23 36.82 36.37 34.38
18.64 21.12 20.64 21.28 21.83 21.62 19.72 20.19 20.63 20.60 20.70 19.41 20.91 21.46 21.88 21.91 23.31 25.97 26.42 25.37 25.35 26.07 27.53 29.05 30.59 31.35 33.33 36.67 36.74 35.30 33.92 33.48 33.46 32.72 31.84 31.83 32.02 32.24 31.41 35.30 37.24 36.47 36.06 35.65
20.29 19.30 17.82 19.77 17.84 20.37 20.17 20.03 21.36 20.21 20.34 20.35 20.75 21.67 21.88 22.03 23.13 23.46 24.09 25.50 26.26 26.35 26.81 27.88 28.95 30.26 32.83 36.30 36.26 35.75 34.15 34.64 32.55 32.15 32.33 32.09 32.08 32.11 32.51 31.68 31.14 32.22 35.88 36.00
19.09 19.61 19.10 19.80 19.34 19.00 19.55 18.86 17.76 17.68 18.59 19.19 20.93 21.30 21.91 21.38 21.66 22.52 24.31 25.59 26.40 26.04 26.10 26.98 28.41 30.61 33.35 35.75 35.70 35.00 33.51 32.40 32.72 32.66 32.72 32.97 32.32 32.13 32.28 32.04 31.82 31.85 33.28 35.66
19.14 18.45 17.53 16.93 17.09 17.38 17.23 17.13 16.57 17.08 18.60 19.48 20.13 20.53 21.21 22.15 22.66 23.26 24.60 25.47 25.00 24.48 25.73 26.57 28.03 30.82 33.01 35.27 34.84 34.88 33.82 34.26 33.82 32.65 32.66 32.09 32.16 31.89 31.68 31.60 31.30 31.68 32.28 32.51
14.98 15.25 16.21 15.45 15.86 15.88 16.28 17.27 17.85 18.43 19.23 19.42 19.81 20.82 21.20 22.08 24.02 24.52 25.54 27.16 27.19 26.00 26.41 27.33 28.12 30.48 32.75 35.02 34.49 34.58 33.27 33.69 34.98 32.38 32.39 32.49 32.11 31.59 31.35 31.06 31.02 31.33 31.75 32.86
17.42 18.02 18.29 17.58 16.63 16.49 16.62 18.14 18.57 19.37 19.14 20.27 20.54 20.48 20.48 22.40 23.73 25.75 27.82 28.17 25.74 25.22 26.49 27.78 29.19 31.47 32.92 34.44 34.59 34.52 33.34 32.99 32.66 32.03 31.93 31.80 31.82 31.56 31.09 30.68 30.54 30.42 31.16 33.11
17.08 16.92 17.20 17.59 17.43 17.15 17.43 17.54 18.64 19.44 19.98 20.00 19.31 18.93 20.95 22.55 22.64 23.64 28.20 26.49 26.84 26.88 27.92 29.36 30.92 31.90 32.02 33.91 34.45 34.27 32.92 32.07 31.84 31.73 31.96 32.98 31.03 30.67 30.09 30.07 29.98 30.61 31.76 32.38
16.53 16.89 16.89 16.75 17.86 17.54 16.78 17.58 18.46 18.12 19.21 19.15 18.50 18.31 18.63 20.66 21.50 22.13 25.16 26.98 28.24 28.75 31.17 29.98 30.62 30.34 31.17 33.71 35.36 33.59 32.30 31.91 31.65 31.48 31.67 30.40 29.53 28.95 29.24 29.99 29.60 30.39 31.42 30.78
13.32 12.89 13.35 15.45 15.61 17.37 16.91 16.98 18.25 17.43 18.95 19.51 17.65 17.03 17.67 20.12 20.58 20.82 21.30 21.76 25.73 30.22 32.18 30.89 29.46 29.49 30.74 34.24 34.14 32.60 31.85 31.66 31.33 31.04 31.43 29.67 29.25 28.47 28.62 28.91 28.95 29.57 30.20 29.12
7.81 7.82 8.62 11.56 13.06 13.83 15.28 17.50 18.55 18.54 18.28 18.02 17.73 17.48 17.10 17.66 18.80 18.64 21.16 19.62 24.94 30.56 31.57 31.87 30.95 32.22 31.78 34.57 32.63 32.00 31.82 31.59 31.45 31.60 30.14 29.95 29.01 28.72 28.44 28.17 27.89 28.33 28.77 29.11
5.96 5.06 9.40 8.59 9.05 11.84 15.72 17.39 17.34 17.82 17.69 17.22 16.48 16.24 16.05 17.31 18.85 15.54 15.10 20.10 24.16 26.56 27.07 29.93 34.14 34.73 34.55 31.68 31.68 31.77 31.69 31.54 31.65 31.42 31.12 30.51 30.10 29.37 28.44 27.82 27.48 27.51 27.90 28.13
3.78 5.85 6.31 10.81 9.43 10.14 12.10 14.98 17.12 17.77 18.52 17.81 17.29 17.08 16.10 14.97 16.69 18.37 19.53 21.20 24.47 22.89 24.47 27.00 28.49 29.68 30.03 30.22 30.62 30.60 30.59 30.61 30.65 30.67 30.82 31.11 29.38 29.04 28.40 27.59 27.10 27.42 27.76 27.29
7.10 8.48 10.10 11.15 11.58 11.52 12.54 15.97 16.14 16.82 17.82 16.76 16.95 16.81 16.82 17.30 16.87 17.45 17.49 17.76 21.81 19.26 18.84 24.69 25.35 24.52 21.53 23.13 23.00 25.13 28.28 29.39 29.55 29.57 29.44 29.20 28.88 28.46 28.14 27.83 27.24 26.54 26.23 26.62
8.51 13.70 12.75 12.36 10.52 11.41 13.35 15.72 13.78 15.70 17.44 14.34 15.57 15.70 15.96 16.53 17.63 16.61 16.40 18.85 16.75 17.83 15.51 17.70 19.92 18.25 18.37 18.75 18.48 20.58 20.99 21.09 22.29 23.31 23.48 23.80 24.29 24.53 24.48 24.39 24.69 24.36 24.03 23.55
13.21 18.10 14.18 14.47 15.40 13.86 14.80 15.14 13.69 13.57 15.90 14.95 13.43 14.53 14.76 15.00 15.51 15.46 16.95 14.82 14.68 14.51 14.26 14.30 16.12 17.65 16.30 15.75 15.37 15.88 16.15 18.28 20.62 17.97 18.03 18.37 18.68 18.86 18.79 18.87 18.96 19.18 19.29 19.24
MSLP
1026.40 1026.15 1026.20 1025.90 1025.95 1026.04 1026.42 1026.48 1026.50 1025.40 1025.64 1025.76 1026.05 1025.98 1025.27 1024.88 1024.29 1023.42 1022.63 1021.91 1021.27 1020.39 1019.58 1018.99 1018.53 1018.07 1017.48 1016.78 1015.99 1015.31 1014.49 1013.60 1012.68 1011.90 1011.76 1011.81 1011.86 1012.03 1012.38 1012.59 1012.99 1013.30 1013.98 1014.42
1026.67 1026.10 1026.22 1025.79 1025.50 1025.74 1025.76 1026.00 1026.33 1026.04 1025.96 1026.26 1026.06 1025.83 1025.38 1024.86 1024.26 1023.47 1022.82 1022.03 1021.17 1020.48 1019.84 1019.22 1018.52 1017.99 1017.61 1016.87 1015.94 1015.28 1014.35 1013.41 1012.49 1012.09 1012.14 1012.20 1012.34 1012.53 1012.91 1013.16 1013.44 1013.93 1014.28 1014.78
1027.05 1026.65 1026.55 1025.98 1025.38 1025.20 1025.45 1025.83 1026.12 1026.53 1026.66 1026.50 1026.10 1026.00 1025.44 1024.75 1024.01 1023.51 1022.81 1022.07 1021.12 1020.31 1019.74 1019.03 1018.55 1018.18 1017.55 1016.85 1016.04 1015.22 1014.36 1013.30 1012.65 1012.56 1012.62 1012.68 1012.87 1013.14 1013.47 1013.71 1013.95 1014.31 1014.79 1015.13
1027.85 1027.46 1027.05 1025.68 1025.43 1025.40 1025.93 1026.15 1026.39 1026.82 1026.87 1026.57 1026.22 1025.70 1025.11 1024.41 1023.90 1023.36 1022.85 1022.02 1021.09 1020.32 1019.61 1018.89 1018.35 1017.95 1017.47 1016.82 1016.16 1015.41 1014.55 1013.67 1013.14 1013.02 1013.10 1013.17 1013.35 1013.70 1013.92 1014.10 1014.43 1014.68 1015.25 1015.60
1028.76 1028.25 1026.83 1026.34 1026.08 1026.19 1026.58 1027.03 1026.91 1027.09 1026.99 1026.65 1026.24 1025.76 1024.45 1024.00 1023.75 1023.60 1022.85 1022.01 1021.14 1020.21 1019.46 1018.79 1018.16 1017.69 1017.22 1016.69 1016.24 1015.61 1014.85 1014.04 1013.60 1013.51 1013.47 1013.58 1013.86 1014.06 1014.32 1014.54 1014.95 1015.29 1015.72 1016.09
1029.23 1028.65 1027.57 1026.98 1026.46 1026.40 1026.68 1027.21 1027.44 1027.47 1027.43 1027.11 1026.61 1025.83 1024.73 1024.09 1024.01 1023.37 1022.83 1022.06 1021.05 1020.03 1019.13 1018.55 1017.80 1017.45 1017.05 1016.54 1016.24 1015.66 1015.02 1014.43 1013.85 1013.65 1013.79 1013.90 1014.19 1014.43 1014.72 1014.97 1015.47 1015.86 1016.45 1017.01
1029.40 1028.88 1027.71 1027.54 1027.07 1026.75 1027.56 1028.04 1027.62 1027.82 1027.78 1027.56 1027.27 1026.54 1025.04 1024.73 1023.70 1023.49 1022.70 1021.77 1020.93 1020.03 1019.15 1018.33 1017.68 1017.28 1016.77 1016.36 1016.13 1015.73 1015.13 1014.50 1014.02 1013.86 1013.98 1014.21 1014.41 1014.85 1015.07 1015.51 1016.12 1016.79 1017.35 1018.03
1029.72 1029.47 1028.65 1028.02 1027.58 1028.22 1028.53 1028.05 1028.14 1028.08 1027.89 1027.48 1026.97 1026.18 1025.55 1024.87 1024.14 1023.08 1022.19 1021.47 1020.80 1020.04 1019.02 1018.12 1017.52 1017.06 1016.46 1016.10 1015.92 1015.62 1015.12 1014.73 1014.35 1014.20 1014.32 1014.54 1014.72 1015.27 1015.67 1016.04 1016.73 1017.51 1018.10 1018.88
1029.28 1028.78 1028.54 1028.60 1028.54 1028.79 1028.86 1028.83 1028.55 1028.34 1027.89 1027.68 1027.14 1026.20 1025.35 1024.48 1023.79 1023.06 1022.35 1021.50 1020.82 1020.13 1019.01 1017.98 1017.28 1016.75 1016.15 1015.68 1015.68 1015.49 1015.17 1015.05 1014.71 1014.59 1014.69 1014.87 1015.15 1015.58 1016.13 1016.63 1017.06 1017.91 1018.59 1019.35
1029.45 1029.30 1029.09 1028.96 1028.92 1029.23 1029.24 1029.20 1028.92 1028.57 1028.23 1027.89 1027.15 1026.11 1025.22 1024.36 1023.57 1022.81 1022.12 1021.42 1020.76 1019.87 1018.71 1017.68 1016.96 1016.37 1015.83 1015.47 1015.48 1015.40 1015.26 1015.29 1015.09 1015.01 1015.06 1015.27 1015.57 1015.93 1016.28 1016.76 1017.33 1018.02 1018.72 1019.50
1030.21 1029.80 1029.53 1029.45 1029.30 1029.44 1029.19 1029.18 1029.01 1028.59 1028.30 1027.70 1026.95 1025.77 1025.24 1024.03 1023.27 1022.56 1021.84 1021.15 1020.53 1019.72 1018.68 1017.57 1016.85 1016.10 1015.41 1015.17 1015.25 1015.29 1015.26 1015.41 1015.41 1015.42 1015.54 1015.72 1016.12 1016.31 1016.54 1016.97 1017.14 1017.72 1018.62 1019.24
1031.02 1031.23 1031.52 1030.62 1029.96 1029.79 1029.65 1029.37 1028.93 1028.35 1027.52 1027.15 1026.59 1025.51 1024.78 1023.78 1022.90 1022.12 1021.30 1020.63 1019.91 1019.19 1018.40 1017.43 1016.72 1015.89 1015.23 1014.94 1014.93 1015.08 1015.16 1015.44 1015.55 1015.68 1015.84 1016.03 1016.33 1016.84 1017.19 1017.34 1017.75 1018.31 1018.87 1019.33
1031.93 1031.80 1031.79 1031.05 1030.50 1030.14 1029.95 1029.32 1028.81 1028.16 1027.44 1026.60 1025.86 1025.17 1024.23 1023.15 1022.25 1021.28 1020.45 1019.97 1019.33 1018.67 1018.03 1017.26 1016.45 1015.58 1015.02 1014.63 1014.62 1014.77 1014.91 1015.30 1015.53 1015.77 1015.97 1016.19 1016.54 1016.86 1017.33 1018.29 1018.53 1018.86 1019.38 1019.98
1032.38 1032.37 1031.54 1031.04 1030.80 1030.29 1029.88 1029.31 1028.70 1027.87 1027.05 1026.30 1025.43 1024.52 1023.58 1022.60 1021.56 1020.72 1019.83 1019.12 1018.54 1018.04 1017.57 1016.94 1016.17 1015.20 1014.64 1014.19 1014.24 1014.42 1014.70 1015.12 1015.44 1015.74 1016.06 1016.37 1016.72 1017.10 1017.49 1017.93 1018.63 1019.52 1020.11 1020.40
1032.74 1032.77 1032.33 1031.47 1030.84 1030.26 1029.87 1029.31 1028.47 1027.37 1026.39 1025.45 1024.68 1023.93 1022.97 1021.81 1020.73 1019.80 1019.04 1018.34 1017.72 1017.35 1016.91 1016.36 1015.62 1014.67 1014.18 1013.84 1013.91 1014.08 1014.44 1014.87 1015.31 1015.71 1016.10 1016.48 1016.92 1017.39 1017.77 1018.15 1018.87 1019.67 1020.33 1020.92
1032.78 1032.39 1031.85 1031.52 1030.86 1030.23 1029.83 1029.02 1028.24 1027.09 1026.01 1025.03 1024.15 1023.10 1022.14 1021.09 1019.83 1018.78 1017.94 1017.36 1017.02 1016.61 1016.17 1015.74 1015.02 1014.23 1013.84 1013.59 1013.68 1013.89 1014.21 1014.66 1015.14 1015.60 1016.12 1016.62 1017.08 1017.54 1018.01 1018.54 1019.29 1019.94 1020.51 1021.06
1032.78 1031.96 1031.65 1031.26 1030.90 1030.31 1029.77 1028.96 1028.12 1026.98 1025.78 1024.79 1023.78 1022.67 1021.49 1020.16 1018.71 1017.63 1016.79 1016.32 1016.20 1015.90 1015.54 1015.16 1014.27 1013.78 1013.39 1013.16 1013.34 1013.63 1013.98 1014.50 1015.06 1015.59 1016.09 1016.57 1017.07 1017.60 1018.19 1018.83 1019.49 1020.09 1020.68 1021.20
1033.12 1032.82 1032.43 1031.97 1031.35 1030.69 1029.61 1028.81 1027.84 1026.74 1025.77 1024.78 1023.74 1022.57 1021.36 1020.04 1018.78 1017.42 1016.34 1015.85 1015.62 1015.29 1014.89 1014.30 1013.79 1013.26 1012.76 1012.68 1012.99 1013.35 1013.75 1014.29 1014.91 1015.44 1015.99 1016.57 1017.09 1017.71 1018.28 1018.92 1019.64 1020.29 1020.97 1021.45
1033.04 1032.79 1032.37 1031.93 1031.33 1030.68 1029.89 1028.83 1027.77 1026.83 1025.82 1024.90 1023.88 1022.75 1021.63 1020.44 1019.26 1017.89 1016.40 1015.86 1015.44 1014.94 1014.30 1013.87 1013.24 1012.78 1012.41 1012.46 1012.81 1013.24 1013.57 1014.13 1014.80 1015.38 1015.95 1016.54 1017.25 1017.89 1018.51 1019.15 1019.81 1020.46 1021.00 1021.54
1033.25 1032.96 1032.52 1031.96 1031.25 1030.59 1029.74 1028.82 1027.91 1027.00 1026.12 1025.21 1024.27 1023.13 1021.96 1020.85 1019.92 1018.70 1017.38 1016.37 1015.80 1015.14 1014.27 1013.68 1012.85 1012.45 1012.40 1012.49 1012.80 1013.23 1013.60 1014.02 1014.64 1015.27 1015.86 1016.55 1017.28 1017.96 1018.70 1019.31 1019.89 1020.52 1021.16 1021.78
1033.54 1033.21 1032.81 1032.30 1031.48 1030.59 1029.86 1029.06 1028.14 1027.25 1026.41 1025.63 1024.83 1023.90 1022.98 1021.82 1020.80 1019.75 1018.49 1017.40 1016.44 1015.28 1014.29 1013.75 1013.21 1012.85 1012.70 1012.74 1013.06 1013.43 1013.78 1014.17 1014.68 1015.22 1015.78 1016.53 1017.31 1018.02 1018.77 1019.48 1020.12 1020.68 1021.30 1021.97
1033.97 1033.57 1033.10 1032.58 1031.71 1030.79 1029.89 1029.12 1028.48 1027.60 1026.76 1025.98 1025.28 1024.48 1023.48 1022.42 1021.50 1020.62 1019.93 1019.34 1017.68 1016.20 1014.89 1014.08 1013.65 1013.24 1013.12 1013.28 1013.58 1013.83 1014.09 1014.41 1014.85 1015.36 1015.92 1016.63 1017.30 1018.15 1018.99 1019.63 1020.28 1020.84 1021.45 1022.06
1034.34 1033.92 1033.35 1032.74 1031.90 1031.14 1030.14 1029.48 1028.67 1027.92 1027.23 1026.58 1025.99 1025.30 1024.54 1023.70 1022.78 1021.81 1020.59 1019.89 1018.81 1017.65 1016.38 1015.38 1014.53 1014.14 1014.03 1014.07 1014.15 1014.28 1014.51 1014.82 1015.18 1015.61 1016.14 1016.84 1017.49 1018.35 1019.21 1020.01 1020.59 1021.13 1021.71 1022.24
1034.42 1033.80 1033.29 1032.48 1031.80 1031.15 1030.44 1029.73 1028.92 1028.34 1027.81 1027.24 1026.74 1026.12 1025.32 1024.28 1023.37 1022.86 1022.17 1021.20 1019.88 1018.99 1018.03 1017.21 1016.32 1015.65 1015.35 1015.14 1015.10 1015.13 1015.25 1015.44 1015.76 1016.19 1016.70 1017.31 1018.10 1018.90 1019.74 1020.39 1020.94 1021.56 1021.98 1022.59
1034.00 1033.50 1032.97 1032.42 1032.06 1031.58 1030.98 1030.15 1029.37 1028.72 1028.08 1027.66 1027.20 1026.64 1026.12 1025.51 1024.88 1024.06 1023.12 1022.23 1021.19 1020.33 1019.66 1018.82 1018.11 1017.60 1017.45 1017.18 1016.99 1016.75 1016.56 1016.64 1016.85 1017.15 1017.59 1018.15 1018.84 1019.56 1020.22 1020.74 1021.32 1021.99 1022.62 1023.05
1033.78 1033.28 1032.90 1032.46 1032.32 1031.82 1031.28 1030.59 1030.03 1029.43 1028.79 1028.39 1027.91 1027.48 1026.98 1026.38 1025.68 1024.98 1024.26 1023.41 1022.71 1022.05 1021.50 1020.93 1020.36 1019.88 1019.64 1019.32 1019.08 1018.83 1018.78 1018.76 1018.73 1018.95 1019.22 1019.70 1020.21 1020.75 1021.27 1021.79 1022.33 1022.85 1023.26 1023.66
1033.43 1032.95 1032.80 1032.42 1032.18 1031.86 1031.42 1031.03 1030.57 1030.10 1029.56 1029.15 1028.88 1028.45 1027.95 1027.39 1026.83 1026.18 1025.51 1024.90 1024.38 1023.90 1023.45 1023.05 1022.49 1022.03 1021.70 1021.42 1021.13 1021.12 1021.02 1020.94 1020.92 1021.08 1021.38 1021.73 1022.09 1022.49 1022.87 1023.26 1023.64 1024.02 1024.40 1024.78
Wind_Speed
4 6 4 6 9 6 9 8 8 2 4 4 8 9 7 6 8 13 15 15 16 16 14 12 12 13 13 13 13 13 12 11 10 7 1 2 3 4 4 6 6 7 9 7
4 7 4 10 9 8 11 12 7 10 12 2 6 6 6 5 9 12 14 15 16 16 16 14 12 11 12 13 14 14 13 12 11 2 1 2 4 6 6 6 8 8 8 10
5 2 6 6 3 4 3 2 1 3 2 5 8 11 11 6 8 10 12 13 14 14 13 15 13 9 11 13 13 13 12 11 3 2 4 5 6 6 7 7 7 9 9 10
4 3 3 2 3 3 7 3 6 5 6 8 9 11 14 8 5 12 15 16 17 15 14 17 11 9 10 10 10 11 11 8 2 3 5 6 7 7 7 7 8 9 9 10
1 2 5 2 4 2 2 2 3 8 8 10 9 9 12 2 9 14 14 14 15 14 16 15 13 8 9 9 9 9 10 9 2 2 5 6 7 7 7 9 8 8 9 11
2 2 5 1 5 2 3 5 5 4 7 10 11 10 12 12 13 14 14 15 18 17 16 13 13 7 8 8 8 8 9 9 2 3 5 6 7 8 6 9 10 9 10 10
3 3 4 3 7 2 3 2 4 4 8 11 9 10 15 16 19 14 15 19 18 15 15 13 12 7 8 7 6 7 8 7 2 3 6 7 8 7 9 10 11 11 11 10
2 3 7 5 4 2 3 4 5 7 12 13 12 14 16 17 18 20 19 16 16 15 15 14 14 8 9 7 4 6 6 5 2 4 5 6 9 8 9 11 12 11 11 9
6 3 1 1 6 2 1 3 7 13 14 9 14 19 20 20 19 16 16 15 14 15 16 14 13 10 10 5 3 4 3 3 2 3 5 7 9 10 9 9 10 9 9 9
3 1 5 4 4 3 1 7 11 8 10 15 18 19 20 19 17 17 15 15 14 16 15 16 13 14 10 5 2 1 1 2 1 3 6 5 5 6 7 8 9 9 9 9
5 4 10 1 2 9 15 9 8 13 14 16 16 19 18 19 18 17 16 14 13 15 15 16 14 14 10 5 4 2 2 2 2 3 4 5 4 4 5 5 9 10 9 10
3 1 4 9 10 14 10 13 15 17 17 16 16 19 19 18 16 15 16 16 14 14 15 15 14 14 12 5 5 4 3 3 3 4 4 5 6 7 11 12 17 18 18 12
4 6 8 14 13 5 14 17 17 18 17 19 18 16 18 18 16 20 17 15 15 15 14 15 14 14 12 6 6 6 4 5 4 4 4 6 7 8 10 11 19 19 19 17
2 6 6 2 9 15 14 16 18 17 16 15 16 16 17 17 18 17 17 16 15 14 13 14 14 15 11 7 7 6 5 8 4 5 5 5 6 7 8 10 10 8 13 14
3 4 8 12 13 13 13 13 16 16 16 17 15 16 16 18 18 17 16 16 15 13 13 13 13 13 10 6 8 8 6 4 5 5 5 7 6 6 7 10 10 9 7 12
9 8 6 8 12 13 14 15 14 16 17 18 18 18 18 18 18 18 17 15 12 10 11 11 12 12 9 7 7 7 6 11 8 6 7 7 7 7 8 9 9 9 8 8
5 9 12 12 13 16 16 14 14 15 16 17 19 19 19 19 18 14 13 11 9 10 10 11 14 11 9 8 9 6 6 7 12 7 7 7 7 8 8 8 9 8 7 8
4 7 8 10 12 13 16 16 15 16 16 18 18 18 17 17 16 15 10 7 6 8 9 10 10 9 7 8 8 7 7 7 7 8 7 7 7 7 7 8 8 8 7 9
5 8 8 10 10 11 12 13 14 16 15 15 16 16 15 14 15 16 11 6 6 7 8 10 15 12 5 8 9 6 7 8 7 7 7 12 8 7 8 8 8 8 8 7
7 7 9 10 10 9 11 12 13 13 13 14 15 15 16 15 15 15 14 8 7 6 9 10 9 4 4 7 11 5 6 8 8 8 8 8 8 8 7 10 9 8 8 6
7 7 9 10 10 11 9 10 11 13 14 13 13 14 14 13 14 14 13 12 16 16 9 11 6 3 1 6 6 4 5 6 7 8 9 8 9 8 8 8 7 7 7 6
4 5 7 8 8 10 9 10 10 11 13 13 14 14 14 14 14 13 10 12 11 26 12 6 4 4 2 7 4 3 4 6 6 6 7 8 8 8 7 7 7 6 6 6
5 4 6 7 7 9 9 9 10 11 12 12 13 14 12 9 8 10 11 16 10 18 12 10 14 13 10 4 3 4 4 5 5 6 7 7 8 7 7 6 6 6 6 6
4 5 5 6 6 5 10 11 10 10 9 10 11 11 11 10 8 8 9 15 21 17 13 15 17 22 17 6 6 6 6 6 6 6 8 12 8 8 7 7 7 6 6 6
4 5 4 5 7 6 8 9 8 9 10 10 11 11 12 9 7 9 9 10 21 16 12 23 26 25 11 10 10 10 8 7 7 7 8 8 8 8 7 7 7 7 6 5
4 3 3 4 3 4 5 6 6 7 7 8 8 9 9 9 9 10 9 15 13 17 12 12 12 12 11 12 12 12 10 10 11 11 11 10 9 8 8 8 7 6 6 6
3 6 3 4 4 5 5 6 6 7 8 6 6 8 8 9 10 11 14 11 11 11 11 11 12 14 11 12 12 12 11 11 17 11 10 10 9 8 8 8 7 7 6 6
Wind_Direction
271 277 237 256 260 227 222 238 240 9 290 350 338 315 287 311 327 350 345 346 348 338 334 332 336 331 328 326 327 321 315 308 296 285 244 147 143 145 134 147 135 137 128 122
253 263 282 272 271 245 246 245 256 268 280 6 311 322 330 328 340 348 334 331 334 339 335 327 323 325 322 324 326 321 316 306 294 239 127 92 96 96 98 105 111 117 121 130
263 3 325 285 276 216 132 79 247 256 359 341 330 325 319 307 316 329 327 324 323 329 325 315 314 318 316 319 319 323 319 320 7 70 86 93 95 98 110 111 117 117 122 127
268 347 252 135 8 82 109 86 56 22 324 299 291 299 296 271 309 337 325 316 316 320 325 318 310 305 312 318 324 324 328 328 358 99 105 105 104 111 113 117 119 118 115 114
216 256 306 111 8 18 15 109 36 351 322 314 313 301 296 263 352 322 308 311 311 310 313 310 306 302 314 321 324 328 333 335 329 137 127 121 118 114 113 110 106 108 116 118
173 216 248 141 298 232 170 204 14 319 318 326 333 313 297 312 319 312 315 314 312 310 308 308 313 299 308 315 318 332 328 324 288 146 135 121 120 118 112 110 108 104 100 104
233 253 282 315 290 297 169 242 323 323 320 310 292 274 297 308 308 310 309 314 307 310 308 308 305 295 297 303 307 316 318 325 322 124 125 124 114 119 120 113 109 103 101 105
177 229 268 337 4 61 293 325 313 313 313 302 295 297 300 302 301 308 311 307 309 313 309 312 309 294 288 289 303 311 328 326 6 124 126 127 124 120 120 119 114 112 108 100
185 238 103 111 228 70 15 273 321 318 314 318 310 302 302 302 306 305 306 306 312 306 303 306 307 299 282 280 308 317 347 334 31 98 123 132 133 129 125 127 125 124 119 116
346 70 311 273 160 60 333 311 309 303 306 306 298 298 298 298 301 302 304 305 303 302 304 307 309 310 277 268 253 284 349 325 38 113 121 121 126 136 137 140 134 133 131 125
265 344 334 54 51 341 329 322 311 307 302 296 294 291 293 295 298 298 299 299 299 296 297 297 307 306 302 236 200 214 166 195 149 118 117 109 90 127 138 135 147 142 140 137
261 171 243 278 304 317 319 321 315 310 306 299 298 295 296 293 295 297 297 294 291 292 292 296 300 303 308 221 196 190 172 177 167 134 123 119 114 102 101 125 134 131 135 133
276 311 275 271 291 311 321 315 310 305 304 301 299 295 295 293 294 294 296 292 286 288 292 294 298 297 308 224 192 187 183 169 149 139 134 132 129 129 125 118 125 122 126 131
270 328 303 225 306 314 310 309 306 301 297 295 297 299 296 295 295 292 290 288 283 284 287 290 291 289 301 221 190 178 169 170 150 141 138 132 134 132 134 133 125 120 129 137
309 257 256 286 302 309 311 310 308 308 311 312 312 307 303 299 293 290 287 283 280 279 280 282 283 286 303 212 188 168 158 156 148 137 136 130 127 126 130 125 122 121 129 133
301 285 292 309 312 319 318 317 315 315 316 316 313 314 310 300 291 285 280 277 276 273 277 281 280 284 296 209 182 168 154 159 151 143 140 135 134 133 130 124 130 135 139 140
326 336 336 327 327 320 319 315 316 315 319 320 320 318 314 311 300 288 281 274 263 260 270 273 275 284 281 201 181 170 149 159 153 143 147 146 138 133 131 134 138 138 142 154
279 284 294 297 303 311 314 318 320 325 325 324 323 323 322 325 327 324 310 298 290 284 274 270 276 284 258 189 178 165 153 156 155 154 145 142 139 136 130 129 136 139 138 160
320 309 311 312 312 307 309 317 327 326 327 329 330 330 328 332 335 332 329 325 331 325 327 312 300 301 223 180 162 159 153 151 152 150 148 142 133 138 142 143 142 143 148 152
326 325 323 317 319 322 320 327 326 329 335 334 335 339 339 343 344 341 348 339 347 313 317 317 314 276 191 177 164 151 154 154 153 151 148 141 145 142 138 144 143 144 150 139
325 319 321 321 319 322 322 325 331 335 338 342 343 344 337 336 348 344 356 355 347 339 345 346 344 348 136 153 140 136 147 148 150 153 149 144 144 135 135 136 139 145 142 133
310 318 315 314 321 318 328 332 335 340 348 349 350 350 348 349 353 348 352 351 342 356 352 353 348 9 93 108 102 118 135 141 140 142 138 139 134 131 131 129 136 136 136 142
313 302 308 320 325 313 324 337 342 349 352 350 353 352 351 342 349 353 350 345 355 2 8 9 30 48 62 58 76 100 114 124 131 129 133 132 126 123 124 133 129 129 132 131
310 310 300 310 314 332 357 338 346 349 353 347 354 352 353 352 353 4 343 350 14 16 23 25 36 43 39 35 52 66 78 88 98 106 113 115 112 115 114 119 113 116 111 119
302 287 301 344 355 347 332 334 345 354 359 357 360 358 359 358 1 344 351 4 17 23 18 27 35 39 33 36 41 40 49 64 75 87 95 102 105 108 111 109 107 109 110 111
319 315 323 327 306 316 322 341 357 348 358 358 3 1 357 358 360 4 9 19 21 24 22 18 28 35 35 41 41 43 47 47 52 60 66 67 72 75 78 79 82 85 86 84
323 2 359 350 355 352 344 4 358 349 350 15 358 359 360 2 6 16 18 18 21 22 24 22 24 35 38 43 41 38 43 47 55 57 54 58 60 62 65 67 69 71 72 77